Regional Weather Roundup
Issued by NWS

Home | Current Version | Previous Version | Graphics & Text | Print | Product List | Glossary On
Versions: 1 2 3 4 5 6 7 8 9 10 11 12 13 14 15 16 17 18 19 20 21 22 23 24 25 26 27
000
ASUS45 KCYS 050410
RWRWY

WYOMING REGIONAL WEATHER ROUNDUP
NATIONAL WEATHER SERVICE CHEYENNE WY
1000 PM MDT WED MAY 04 2016

NOTE:  "FAIR" INDICATES FEW OR NO CLOUDS BELOW 12,000 FEET
WITH NO SIGNIFICANT WEATHER AND/OR OBSTRUCTIONS TO VISIBILITY.

WYZ001-050500-
YELLOWSTONE NATIONAL PARK

CITY           SKY/WX    TMP DP  RH WIND       PRES   REMARKS
LK YELLOWSTONE   N/A     39  29  67 CALM      30.21S
W YELLOWSTONE  NOT AVBL

$$
WYZ002>013-054>058-071-098>099-050500-
NORTHERN WYOMING

CITY           SKY/WX    TMP DP  RH WIND       PRES   REMARKS
JACKSON        FAIR      55  23  28 NW7       30.12R
CODY           FAIR      63  28  27 CALM      30.02R
GREYBULL       FAIR      69  26  20 E6        29.94R
WORLAND        FAIR      63  34  33 SE12      29.96R
SHERIDAN       FAIR      54  41  61 S7        29.97R
BUFFALO        FAIR      57  38  48 W9        30.04S
GILLETTE       FAIR      51  42  71 S12       30.01S
HULETT         FAIR      64  37  36 W3        30.03R
NEWCASTLE      FAIR      63  36  36 E16       30.06R

$$
WYZ014>020-022>026-101>103-050500-
CENTRAL WYOMING

CITY           SKY/WX    TMP DP  RH WIND       PRES   REMARKS
BIG PINEY      FAIR      49  27  42 N9        30.15R
PINEDALE       MOCLDY    46  28  49 CALM      30.17R
DUBOIS         FAIR      52  18  25 CALM      30.15R
LANDER         FAIR      63  21  20 CALM      30.04R
RIVERTON       FAIR      63  35  35 S9        30.06R
CASPER         FAIR      48  36  63 CALM      30.07R
DOUGLAS        FAIR      54  42  64 SE9       30.09R

$$
WYZ021-027>030-104>119-050500-
SOUTHERN WYOMING

CITY           SKY/WX    TMP DP  RH WIND       PRES   REMARKS
EVANSTON       FAIR      60  29  30 E6        30.16R
KEMMERER         N/A     52  28  40 NW6       30.17R
FORT BRIDGER   CLEAR     57  27  30 SW13      30.18R
ROCK SPRINGS   FAIR      55  27  34 S9        30.16R
DIXON          FAIR      48  36  61 CALM      30.20R
RAWLINS        FAIR      44  32  62 CALM      30.18R
SARATOGA       FAIR      43  32  65 SE10      30.21R
LARAMIE        FAIR      48  36  63 S9        30.22R
CHEYENNE       FAIR      54  35  48 SW8       30.18R
TORRINGTON     FAIR      58  42  55 SE9       30.08R
PINE BLUFFS    FAIR      54  37  54 S6        30.16R

$$




USA.gov is the U.S. government's official web portal to all federal, state and local government web resources and services.